EW4543 Weather Reports


time (UTC)temp
C
wind
direction
speed
KPH
gust
KPH
rain 1hr
cm
rain 24hr
cm
rain mn
cm
humidity
%
barometer
mb
20260506144528 11 260 0.0 0.0 0.00 0.03 0.00 96 1016.9
20260506143051 11 260 0.0 0.0 0.00 0.03 0.00 96 1016.9
20260506141536 11 259 0.0 0.0 0.00 0.03 0.00 96 1016.8
20260506140030 11 260 0.0 0.0 0.00 0.03 0.00 96 1016.6
20260506134628 11 260 0.0 0.0 0.00 0.03 0.00 96 1016.5
20260506093101 10 260 0.0 0.0 0.00 0.08 0.00 96 1015.4
20260506091600 10 260 0.0 0.0 0.00 0.08 0.00 96 1015.4
20260506090058 10 259 0.0 1.6 0.00 0.08 0.00 96 1015.4
20260506084557 11 260 0.0 0.0 0.00 0.13 0.00 96 1015.5
20260506083103 11 260 0.0 0.0 0.00 0.13 0.00 96 1015.4
20260506081555 11 260 0.0 0.0 0.00 0.13 0.00 96 1015.5
20260506073051 11 260 0.0 0.0 0.00 0.15 0.00 96 1015.3
20260506071550 11 260 0.0 0.0 0.00 0.15 0.00 96 1015.1
20260506061543 11 260 0.0 0.0 0.00 0.20 0.15 95 1014.7
20260506044543 11 260 0.0 0.0 0.00 0.33 0.15 95 1014.1
20260506043034 11 260 0.0 0.0 0.00 0.33 0.15 95 1014.0
20260506041532 11 260 0.0 0.0 0.00 0.33 0.15 95 1013.7
20260506040050 11 259 0.0 0.0 0.00 0.33 0.15 95 1013.5
20260506034529 11 259 0.0 0.0 0.00 0.61 0.15 95 1013.3
20260506033028 11 260 0.0 1.6 0.00 0.61 0.15 95 1013.4
20260506031540 11 260 0.0 0.0 0.00 0.61 0.15 95 1013.0
20260506030024 11 260 0.0 0.0 0.00 0.61 0.15 95 1012.8
20260506024532 11 259 0.0 0.0 0.00 0.69 0.15 95 1012.7
20260506023036 11 260 0.0 0.0 0.00 0.69 0.15 95 1012.7
20260506021532 12 260 0.0 0.0 0.00 0.69 0.15 95 1012.6
20260506020030 11 259 0.0 1.6 0.00 0.69 0.15 95 1012.4
20260506014532 11 260 0.0 0.0 0.00 0.69 0.15 96 1012.6
20260506013028 11 260 0.0 0.0 0.00 0.69 0.15 96 1012.7
20260506011529 11 260 0.0 0.0 0.00 0.69 0.15 96 1012.6
20260506010026 11 259 0.0 1.6 0.03 0.69 0.15 96 1012.5
20260506004527 11 260 0.0 0.0 0.03 0.69 0.15 96 1012.4
20260506003023 11 260 0.0 1.6 0.03 0.69 0.15 96 1012.3
20260506001522 11 260 0.0 1.6 0.03 0.69 0.15 96 1012.3
20260506000023 11 260 0.0 1.6 0.00 0.66 0.13 96 1012.2
20260505234522 11 260 0.0 1.6 0.00 0.66 0.13 96 1012.2
20260505233021 11 260 0.0 1.6 0.00 0.66 0.13 96 1012.2
20260505231528 11 260 0.0 1.6 0.00 0.66 0.13 96 1012.2
20260505230027 11 260 0.0 1.6 0.00 0.66 0.13 96 1012.3
20260505224520 11 262 0.0 1.6 0.00 0.66 0.13 96 1012.2
20260505223021 11 274 0.0 1.6 0.00 0.66 0.13 96 1012.2
20260505221519 11 238 0.0 1.6 0.00 0.66 0.13 96 1012.4
20260505220017 11 279 0.0 3.2 0.00 0.66 0.13 95 1012.3
20260505214517 11 333 0.0 1.6 0.00 0.66 0.13 96 1012.4
20260505213016 11 311 0.0 3.2 0.00 0.66 0.13 95 1012.4
20260505211515 11 118 0.0 3.2 0.00 0.66 0.13 95 1012.4
20260505210023 11 308 0.0 1.6 0.00 0.66 0.13 95 1012.4
20260505203028 11 203 0.0 0.0 0.00 0.66 0.13 96 1012.2
20260505201619 11 208 0.0 0.0 0.00 0.66 0.13 95 1012.2
20260505200043 11 307 0.0 0.0 0.00 0.66 0.13 95 1012.2
20260505194631 11 167 0.0 0.0 0.00 0.66 0.13 96 1012.4
20260505193054 11 145 0.0 0.0 0.00 0.66 0.13 96 1012.3
20260505191553 11 203 0.0 0.0 0.00 0.66 0.13 96 1012.3
20260505190052 11 212 0.0 1.6 0.00 0.66 0.13 96 1012.2
20260505184551 11 200 0.0 0.0 0.00 0.66 0.13 95 1012.2
20260505183050 10 190 0.0 0.0 0.00 0.66 0.13 95 1012.2
20260505181555 10 167 0.0 0.0 0.00 0.66 0.13 95 1012.1
20260505180049 11 217 0.0 0.0 0.00 0.66 0.13 95 1011.9
20260505174554 11 233 0.0 1.6 0.00 0.66 0.13 95 1011.9
20260505173047 11 11 0.0 1.6 0.00 0.66 0.13 95 1011.7
20260505171551 11 269 0.0 1.6 0.00 0.66 0.13 95 1011.5
20260505170045 10 148 0.0 3.2 0.00 0.66 0.13 95 1011.8
20260505164603 10 181 0.0 3.2 0.00 0.66 0.13 95 1011.7
20260505163052 10 227 0.0 1.6 0.00 0.66 0.13 95 1011.6
20260505161544 11 198 0.0 3.2 0.00 0.66 0.13 96 1011.6
20260505153137 9 299 0.0 1.6 0.00 0.66 0.13 96 1011.4
20260505151532 9 337 0.0 1.6 0.00 0.66 0.13 96 1011.3